Weather History for Bergamo, Italy

Change the Weather History Date:

Friday, March 15, 2013

  Actual Average Record
Temperature  
Mean Temperature 40 °F -  
Max Temperature 48 °F 58 °F 68 °F (1997)
Min Temperature 33 °F 41 °F 32 °F (2006)
Degree Days  
Heating Degree Days 24    
Moisture  
Dew Point 13 °F    
Average Humidity 33    
Maximum Humidity 42    
Minimum Humidity 30    
Precipitation  
Precipitation 0.00 in 0.11 in - ()
Sea Level Pressure  
Sea Level Pressure 29.67 in    
Wind  
Wind Speed 6 mph ()    
Max Wind Speed 10 mph    
Max Gust Speed -    
Visibility 6.2 miles    
Events      
Averages and records for this station are not official NWS values.
T = Trace of Precipitation, MM = Missing Value Source: Averaged Metar Reports

Daily Weather History Graph

Daily Weather History Graph

Search for Another Location

Airport:

Trip Planner

Search our weather history database for the weather conditions in past years. The results will help you decide how hot, cold, wet, or windy it might be!

Date:

Astronomy

Mar. 15, 2013 Rise Set
Actual Time 6:33 AM CET 6:27 PM CET
Civil Twilight 6:04 AM CET 6:56 PM CET
Nautical Twilight 5:29 AM CET 7:31 PM CET
Astronomical Twilight 4:54 AM CET 8:06 PM CET
Moon 8:01 AM CET (3/15) 10:39 PM CET (3/15)
Length of Visible Light 12h 52m
Length of Day
11h 53m
Waxing Crescent, 14% of the Moon is Illuminated
Mar 15
Waxing Crescent
Mar 19
First Quarter
Mar 27
Full
Apr 3
Last Quarter
Apr 10
New

Hourly Weather History & Observations

Time (CET) Temp. Windchill Dew Point Humidity Pressure Visibility Wind Dir Wind Speed Gust Speed Precip Events Conditions
12:20 AM 37.4 °F 31.4 °F 10.4 °F 33% 29.44 in 6.2 mi North 8.1 mph - N/A   Scattered Clouds
12:50 AM 37.4 °F 32.1 °F 10.4 °F 33% 29.47 in 6.2 mi North 6.9 mph - N/A   Scattered Clouds
1:20 AM 37.4 °F 32.8 °F 10.4 °F 33% 29.47 in 6.2 mi North 5.8 mph - N/A   Scattered Clouds
1:50 AM 37.4 °F 32.8 °F 10.4 °F 33% 29.47 in - North 5.8 mph - N/A   Clear
2:20 AM 33.8 °F 27.7 °F 8.6 °F 35% 29.47 in - North 6.9 mph - N/A   Clear
2:50 AM 33.8 °F 27.0 °F 6.8 °F 32% 29.47 in - North 8.1 mph - N/A   Clear
3:20 AM 33.8 °F 27.0 °F 8.6 °F 35% 29.50 in - North 8.1 mph - N/A   Clear
3:50 AM 33.8 °F 27.7 °F 6.8 °F 32% 29.50 in - North 6.9 mph - N/A   Clear
4:20 AM 35.6 °F 30.7 °F 8.6 °F 33% 29.50 in - North 5.8 mph - N/A   Clear
4:50 AM 35.6 °F 29.9 °F 8.6 °F 33% 29.50 in - NNE 6.9 mph - N/A   Clear
5:20 AM 33.8 °F 27.7 °F 8.6 °F 35% 29.53 in - NNE 6.9 mph - N/A   Clear
5:50 AM 33.8 °F 28.6 °F 8.6 °F 35% 29.53 in - North 5.8 mph - N/A   Clear
6:20 AM 33.8 °F 27.7 °F 8.6 °F 35% 29.53 in - North 6.9 mph - N/A   Clear
6:50 AM 33.8 °F 28.6 °F 8.6 °F 35% 29.56 in - North 5.8 mph - N/A   Clear
7:20 AM 35.6 °F 31.7 °F 8.6 °F 33% 29.59 in - NE 4.6 mph - N/A   Clear
7:50 AM 35.6 °F 31.7 °F 10.4 °F 35% 29.59 in - North 4.6 mph - N/A   Clear
8:20 AM 39.2 °F 35.0 °F 12.2 °F 33% 29.59 in - North 5.8 mph - N/A   Clear
8:50 AM 41.0 °F 36.4 °F 14.0 °F 33% 29.62 in - NNE 6.9 mph - N/A   Clear
9:20 AM 41.0 °F 38.0 °F 14.0 °F 33% 29.62 in - NNE 4.6 mph - N/A   Clear
9:50 AM 42.8 °F 41.1 °F 15.8 °F 34% 29.65 in - NE 3.5 mph - N/A   Clear
10:20 AM 44.6 °F - 17.6 °F 34% 29.65 in - Variable 2.3 mph - N/A   Clear
10:50 AM 44.6 °F 41.4 °F 15.8 °F 31% 29.65 in - West 5.8 mph - N/A   Clear
11:20 AM 46.4 °F 45.2 °F 17.6 °F 32% 29.68 in - Variable 3.5 mph - N/A   Clear
11:50 AM 46.4 °F 44.3 °F 17.6 °F 32% 29.68 in - Variable 4.6 mph - N/A   Clear
12:20 PM 46.4 °F 43.5 °F 19.4 °F 34% 29.68 in - WNW 5.8 mph - N/A   Clear
12:50 PM 48.2 °F - 19.4 °F 32% 29.68 in - SSE 5.8 mph - N/A   Clear
1:20 PM 48.2 °F - 19.4 °F 32% 29.68 in - Variable 5.8 mph - N/A   Clear
1:50 PM 48.2 °F - 19.4 °F 32% 29.68 in - South 8.1 mph - N/A   Clear
2:20 PM 48.2 °F - 19.4 °F 32% 29.68 in - SSE 8.1 mph - N/A   Clear
2:50 PM 48.2 °F - 19.4 °F 32% 29.71 in - SSW 8.1 mph - N/A   Clear
3:20 PM 48.2 °F - 19.4 °F 32% 29.71 in - South 6.9 mph - N/A   Clear
3:50 PM 48.2 °F - 19.4 °F 32% 29.71 in - SSW 9.2 mph - N/A   Clear
4:20 PM 48.2 °F - 19.4 °F 32% 29.71 in - South 8.1 mph - N/A   Clear
4:50 PM 46.4 °F 41.5 °F 19.4 °F 34% 29.74 in - South 10.4 mph - N/A   Clear
5:20 PM 46.4 °F 41.9 °F 17.6 °F 32% 29.74 in - South 9.2 mph - N/A   Clear
5:50 PM 44.6 °F 39.2 °F 17.6 °F 34% 29.74 in - SSE 10.4 mph - N/A   Clear
6:20 PM 42.8 °F 38.0 °F 14.0 °F 31% 29.77 in - SE 8.1 mph - N/A   Clear
6:50 PM 39.2 °F 34.2 °F 17.6 °F 42% 29.80 in - East 6.9 mph - N/A   Clear
7:20 PM 41.0 °F 37.1 °F 12.2 °F 31% 29.80 in - NNE 5.8 mph - N/A   Clear
7:50 PM 41.0 °F 36.4 °F 12.2 °F 31% 29.83 in - NNE 6.9 mph - N/A   Clear
8:20 PM 39.2 °F 33.6 °F 10.4 °F 31% 29.86 in - NNE 8.1 mph - N/A   Clear
8:50 PM 39.2 °F 33.6 °F 10.4 °F 31% 29.86 in - NNE 8.1 mph - N/A   Clear
9:20 PM 37.4 °F 31.4 °F 8.6 °F 30% 29.89 in - NNE 8.1 mph - N/A   Clear
9:50 PM 37.4 °F 30.8 °F 8.6 °F 30% 29.89 in - NNE 9.2 mph - N/A   Clear
10:20 PM 35.6 °F 29.9 °F 6.8 °F 30% 29.89 in - North 6.9 mph - N/A   Clear
10:50 PM 35.6 °F 29.2 °F 8.6 °F 33% 29.92 in - North 8.1 mph - N/A   Clear
11:20 PM 35.6 °F 29.2 °F 8.6 °F 33% 29.92 in - NNE 8.1 mph - N/A   Clear
11:50 PM 33.8 °F 27.7 °F 8.6 °F 35% 29.92 in - NNE 6.9 mph - N/A   Clear